www.pogodaiklimat.ru

Погода и климат >> Архив погоды >> Мексика >> Piedras Negras


ПОГОДА в Piedras Negras

  • Прогноз погоды в Piedras Negras
  • Монитор погоды в Piedras Negras
  • Климат города

АРХИВ ПОГОДЫ в Piedras Negras

Время (UTC), дата Ветер
(напр.,м/с)
 
Видим.   Явления Облачность Т
(С)
Тd
(С)
f
(%)
Тe
(С)
Тes
(С)
Комфортность P
(гПа)
Po
(гПа)
Тmin
(С)
Tmax
(С)
R
(мм)
R24
(мм)
S
(см)
12 15.10 С 1 20 км ясно +23.0 +20.7 87 +30 +30 очень
душно
1016.2 987.9 +22.8 +33.4
15 15.10 С 1 22 км 8/8 300 м
[St]
+24.0 +22.9 94 +32 +33 очень
душно
1020.3 991.7
18 15.10 З 2 22 км слабый дождь 10/10 200 м
[Frnb]
+23.8 +21.3 86 +30 +30 очень
душно
1022.7 994.0 9
21 15.10 СЗ 5 24 км 5/5 480 м
[Sc diur, vesp]
+26.0 +13.2 45 +28 +30 жарко 1023.9 995.1 9
00 16.10 СЗ 6 23 км ясно +22.6 +10.6 47 +25 +25 комфорт 1025.0 996.5 +22.8 +29.8
03 16.10 СЗ 3 20 км ясно +19.2 +7.2 46 +20 +20 1027.0 998.1
06 16.10 СЗ 3 20 км 8/8 540 м
[Sc diur, vesp]
+17.8 +8.8 56 +18 +18 1029.9 1000.7 +16.6 +29.8
09 16.10 СЗ 3 20 км 4/4 540 м
[Sc diur, vesp]
+16.6 +8.5 59 +16 +16 1030.2 1000.8
12 16.10 СЗ 2 21 км ясно +15.0 +8.3 64 +15 +15 1030.5 1000.9 +13.6 +29.8
15 16.10 С 2 24 км ясно +17.8 +7.1 49 +18 +22 1031.2 1001.2
18 16.10 С 2 24 км ясно +22.4 +5.6 34 +23 +36 комфорт 1030.7 1001.1 +13.6 +23.2
21 16.10 СЗ 1 24 км ясно +24.6 +4.9 28 +24 +34 комфорт 1025.7 996.4
00 17.10 СЗ 1 24 км ясно +22.4 +5.6 34 +23 +23 комфорт 1024.5 995.4 +13.6 +25.6
03 17.10 ЮЗ 1 20 км ясно +18.4 +11.1 62 +20 +20 1024.1 995.1
06 17.10 ЮЗ 1 20 км ясно +14.6 +9.0 69 +15 +15 1024.6 995.5 +13.6 +25.6
15 17.10 В 1 24 км ясно +15.4 +8.7 64 +16 +20 1028.1 997.4
18 17.10 ЮВ 2 24 км ясно +24.0 +7.5 35 +24 +37 комфорт 1027.3 997.5 +9.8 +25.0
21 17.10 Ю 1 24 км ясно +27.4 +6.9 27 +27 +36 жарко 1021.8 992.6
00 18.10 ЮВ 1 24 км ясно +25.0 +8.1 34 +25 +25 комфорт 1020.4 991.6 +9.8 +28.4
03 18.10 ЮВ 2 20 км ясно +19.4 +6.1 42 +21 +21 комфорт 1022.2 993.5
06 18.10 ЮЗ 2 20 км ясно +16.4 +8.3 59 +17 +17 1023.2 994.3 +9.8 +28.4
12 18.10 СВ 1 20 км ясно +12.0 +11.0 94 +12 +12 1021.5 991.6 +11.2 +28.4
15 18.10 ЮВ 1 24 км ясно +15.4 +11.4 77 +16 +20 1022.7 992.3
18 18.10 Ю 3 24 км 8/8 480 м
[Sc diur, vesp]
+24.8 +10.0 39 +26 +28 жарко 1021.5 992.0 +11.2 +25.2
21 18.10 ЮВ 1 24 км 8/0
[Cs]
+28.4 +11.3 35 +29 +37 жарко 1018.2 989.1
00 19.10 ЮВ 1 23 км 8/0
[Cs]
+24.4 +13.2 50 +27 +27 жарко 1017.4 988.6 +11.2 +29.4
03 19.10 ЮВ 1 20 км ясно +20.4 +12.0 59 +23 +23 комфорт 1018.9 990.2
06 19.10 З 1 20 км ясно +18.0 +11.8 67 +19 +19 1020.4 991.6 +11.2 +29.4
15 19.10 В 1 23 км 5/5 480 м
[Sc diur, vesp]
+17.2 +16.6 96 +18 +20 1020.8 990.5
18 19.10 ЮВ 2 23 км 5/5 480 м
[Sc diur, vesp]
+25.6 +19.2 68 +31 +37 очень
душно
1019.9 990.6 +14.0 +26.8
21 19.10 ЮВ 1 24 км ясно +29.8 +14.8 40 +32 +42 душно 1015.7 986.8
00 20.10 Ю 1 23 км ясно +27.6 +15.0 46 +30 +30 жарко 1015.2 986.6 +14.0 +31.0
12 20.10 ЮВ 1 20 км 10/10 200 м
[Frnb]
+21.0 +20.7 98 +27 +27 душно 1018.1 987.4 +20.2 +31.0
15 20.10 В 1 22 км 10/10 300 м
[Frnb]
+22.4 +21.6 95 +30 +30 очень
душно
1018.9 988.4
18 20.10 ЮВ 2 22 км 10/10 300 м
[Frnb]
+25.0 +20.8 78 +31 +31 очень
душно
1016.9 988.2 +20.2 +26.0
21 20.10 Ю 1 22 км 9/9 300 м
[St]
+28.2 +19.1 58 +34 +35 очень
душно
1012.1 983.6
00 21.10 ЮВ 1 23 км 8/8 300 м
[Sc diur, vesp]
+25.8 +19.9 70 +32 +32 очень
душно
1011.2 982.9 +20.2 +29.6
03 21.10 ЮВ 2 20 км ясно +23.6 +19.3 77 +29 +29 душно 1013.1 984.7
06 21.10 В 1 20 км 9/9 500 м
[Sc diur, vesp]
+22.2 +19.6 85 +28 +28 душно 1013.2 984.8 +20.2 +29.6
12 21.10 ЮВ 1 20 км 10/10 300 м
[Frnb]
+21.8 +21.8 100 +28 +28 душно 1012.7 983.4 +21.0 +29.6
18 21.10 ЮВ 1 22 км 9/9 300 м
[Frnb]
+27.0 +22.4 76 +35 +37 очень
душно
1012.5 984.0 +21.0 +27.8
21 21.10 Ю 2 22 км {туман} 6/6 400 м
[Sc diur, vesp]
+31.0 +21.1 56 +39 +42 очень
душно
1011.7 983.4
00 22.10 ЮВ 2 24 км ясно +29.4 +20.2 58 +36 +36 очень
душно
1010.1 982.0 +21.0 +32.4

 

Местоположение метеостанции Piedras Negras (Мексика): широта 28.70 долгота -100.50 высота над уровнем моря 250 м.

В архиве по умолчанию представлена погода в Piedras Negras за последнюю неделю. Архивные данные за месяц целиком и за предыдущие месяцы, начиная с января 2011 года, Вы можете получить, выбрав интересующий диапазон дат из раскрывающегося списка и нажав кнопку "Ввод!".

Внимание! Время в таблицах - всемирное. Для получения местного времени необходимо прибавить поправку, которая в Piedras Negras равна -7 ч.

Смотрите также архив погоды в соседних городах и на ближайших метеорологических станциях:

Погода в Monclova (Мексика) (221 км)
Погода в Monterrey (Мексика) (331 км)
Погода в Saltillo (Мексика) (374 км)
Погода в Torreon (Мексика) (455 км)
Погода в Chihuahua University (Мексика) (537 км)
Погода в Hidalgo del Parral (Мексика) (539 км)
Погода в Chihuahua (Мексика) (544 км)
Погода в Ciudad Victoria (Мексика) (569 км)
Погода в Soto La Marina (Мексика) (594 км)
Погода в Tepehuanes (Мексика) (638 км)

Пояснения к столбцам:

Ветер - указаны скорость ветра в м/с - средняя за 10 мин, порывы в срок и между сроками (в фигурных скобках) и направление, откуда дует ветер: С - северный, СВ - северо-восточный, В - восточный, ЮВ - юго-восточный, Ю - южный, ЮЗ - юго-западный, З - западный, СЗ - северо-западный.
Видимость - горизонтальная дальность видимости в метрах или километрах. При видимости от 1 до 10 км при отсутствии осадков обычно наблюдается дымка, при ухудшении видимости до 1 км и менее - туман. В сухую погоду видимость может ухудшаться дымом, пылью или мглою.
Явления - указаны атмосферные явления, наблюдавшиеся в срок или в последний час перед сроком; фигурными скобками обозначены явления, наблюдавшиеся между сроками (за 1-3 часа до срока); квадратными скобками обозначены град или гололедные отложения с указанием их диаметра в мм.
Облачность - указаны через наклонную черту общая и нижняя облачность в баллах и высота нижней границы облаков в метрах; квадратными скобками обозначены формы облаков: Ci - перистые, Cs - перисто-слоистые, Cc - перисто-кучевые, Ac - высококучевые, As - высокослоистые, Sc - слоисто-кучевые, Ns - слоисто-дождевые, Cu - кучевые, Cb - кучево-дождевые. Подробнее классификацию облаков см. в Атласе облаков (PDF).
T - Температура воздуха - температура, измеренная на высоте 2 м над землей.
Td - Температура точки росы - температура, при понижении до которой содержащийся в воздухе водяной пар достигнет насыщения.
f - Относительная влажность воздуха - влажноcть воздуха, измеренная на высоте 2 м над землей.
Te - Эффективная температура - температура, которую ощущает одетый по сезону человек в тени. Характеристика душности погоды. При расчете учитывается влияние влажности воздуха и скорости ветра на теплоощущения человека.
Tes - Эффективная температура на солнце - температура, которую ощущает человек, с поправкой на солнечный нагрев. Характеристика знойности погоды. Зависит от высоты солнца над горизонтом, облачности и скорости ветра. Ночью, в пасмурную погоду, а также при ветре 12 м/с и более поправка равна нулю.
P - Атмосферное давление - приведенное к уровню моря атмосферное давление.
Po - Атмосферное давление - измеренное на уровне метеостанции атмосферное давление.
Tmin - Минимальная температура - минимум температуры воздуха на высоте 2 м над землей.
Tmax - Максимальная температура - максимум температуры воздуха на высоте 2 м над землей.
R - Количество осадков - Количество выпавших осадков за период времени, мм. При наведении курсора мыши на число - период времени, за который выпало указанное количество осадков.
R24 - Количество осадков - Количество выпавших осадков за 24 часа, мм.
S - Снежный покров - Высота снежного покрова, см. При наведении курсора мыши на число - состояние снежного покрова и степень покрытия местности в баллах.